Home   Weather   Lillestrøm   Past weeks

Flag for Norway Past Weather in Lillestrøm, Norway — Yesterday and Last 2 Weeks

Now
69 °F

Mild.


Feels Like: 69 °F
Forecast: 58 / 68 °F
Wind: 2 mph from Northeast

Location: Oslo-Blindern

Current Time: Jul 26, 2017 at 5:08:32 pm

Latest Report: Jul 26, 2017 at 4:00 pm


Visibility: 25 mi

Pressure: 29.73 "Hg

Humidity: 59%

Dew Point: 54 °F

Location of LillestrømLocation

Past Weather in Lillestrøm — Graph

°F

Lillestrøm Temperature Yesterday

Maximum temperature yesterday: 74 °F (at 2:00 pm)
Minimum temperature yesterday: 60 °F (at 7:00 am)
Average temperature yesterday: 68 °F

High & Low Weather Summary for the Past Weeks

 TemperatureHumidityPressure
High81 °F (Jul 23, 3:00 pm)100% (Jul 16, 6:00 am)30.13 "Hg (Jul 16, 6:00 am)
Low45 °F (Jul 13, 5:00 am)33% (Jul 23, 3:00 pm)29.50 "Hg (Jul 12, 2:00 am)
Average63 °F62%29.89 "Hg
* Reported Jul 11 4:00 pm — Jul 26 4:00 pm, Lillestrøm. Weather by CustomWeather, © 2017

Note: Actual official high and low records may vary slightly from our data, if they occured in-between our weather recording intervals... More about our weather records

Advertising

Lillestrøm Weather History for the Previous 24 Hours

Scroll right to see more
 ConditionsComfort  
Time TempWeatherWind HumidityBarometerVisibility
4:00 pm
Wed, Jul 26
69 °FMild.2 mph59%29.73 "Hg25 mi
3:00 pm69 °FMild.1 mph58%29.75 "HgN/A
2:00 pm68 °FOvercast.2 mph57%29.76 "Hg31 mi
1:00 pm70 °FMild.3 mph57%29.76 "Hg19 mi
12:00 pm68 °FMild.2 mph60%29.78 "Hg22 mi
11:00 am67 °FOvercast.1 mph58%29.79 "Hg47 mi
10:00 am65 °FMild.3 mph67%29.80 "Hg25 mi
9:00 am64 °FMild.3 mph73%29.81 "HgN/A
8:00 am63 °FOvercast.3 mph77%29.82 "Hg37 mi
7:00 am61 °FCool.3 mph85%29.83 "Hg19 mi
6:00 am60 °FCool.2 mph93%29.85 "Hg19 mi
5:00 am60 °FCool.3 mph95%29.85 "HgN/A
4:00 am63 °FDrizzle. Overcast.3 mph82%29.85 "Hg11 mi
3:00 am64 °FMild.2 mph72%29.85 "Hg31 mi
2:00 am64 °FMild.2 mph71%29.85 "Hg31 mi
1:00 am65 °FMild.2 mph71%29.85 "Hg31 mi
12:00 am66 °FMild.3 mph64%29.85 "Hg31 mi
11:00 pm
Tue, Jul 25
65 °FMild.3 mph67%29.86 "Hg31 mi
10:00 pm67 °FMild.2 mph62%29.86 "Hg31 mi
9:00 pm71 °FMild.5 mph53%29.85 "Hg31 mi
8:00 pm72 °FScattered clouds.2 mph51%29.84 "Hg37 mi
7:00 pm72 °FMild.3 mph48%29.84 "Hg22 mi
6:00 pm73 °FMild.5 mph49%29.85 "HgN/A
5:00 pm72 °FPartly sunny.5 mph51%29.86 "Hg47 mi
Weather by CustomWeather, © 2017

See weather overviewHow to use our weather pages